Sal, Cape Verde

1:50 AM -01 on October 15, 2019 (GMT -0100)
Sal

Weather History for 08594 - July, 2019

Change the Weather History Date:

Thursday, July 18, 2019

  Actual Average Record
Temperature  
Mean Temperature 78 °F -  
Max Temperature 84 °F 81 °F - ()
Min Temperature 73 °F 72 °F - ()
Cooling Degree Days 14    
Growing Degree Days 28 (Base 50)    
Moisture  
Dew Point 69 °F    
Average Humidity 72    
Maximum Humidity 88    
Minimum Humidity 55    
Precipitation  
Precipitation 0.00 in 0.01 in - ()
Sea Level Pressure  
Sea Level Pressure 30.02 in    
Wind  
Wind Speed 5 mph ()    
Max Wind Speed 12 mph    
Max Gust Speed -    
Visibility 7.0 miles    
Events      
T = Trace of Precipitation, MM = Missing Value Source: Averaged Metar Reports

Daily Weather History Graph

Daily Weather History Graph

Search for Another Location

Airport or City:

Astronomy

Jul. 18, 2019 Rise Set
Actual Time 6:07 AM -01 7:08 PM -01
Civil Twilight 5:44 AM -01 7:31 PM -01
Nautical Twilight 5:16 AM -01 7:59 PM -01
Astronomical Twilight 4:48 AM -01 8:27 PM -01
Moon 8:35 PM -01 (7/18) 7:22 AM -01 (7/18)
Length of Visible Light 13h 47m
Length of Day
13h 00m
Full, 97% of the Moon is Illuminated
Jul 18
Full
Jul 25
Last Quarter
Aug 1
New
Aug 7
First Quarter
Aug 15
Full

Hourly Weather History & Observations

Time (-01) Temp. Heat Index Dew Point Humidity Pressure Visibility Wind Dir Wind Speed Gust Speed Precip Events Conditions
12:00 AM 75.2 °F - 69.8 °F 83% 30.01 in 6.2 mi South 3.5 mph - N/A   Mostly Cloudy
1:00 AM 75.2 °F - 69.8 °F 83% 30.01 in 6.2 mi South 4.6 mph - N/A   Mostly Cloudy
2:00 AM 74 °F - 69 °F 80% 29.99 in 7 mi SSW 4.6 mph - -   Scattered Clouds
2:00 AM 75.2 °F - 69.8 °F 83% 29.98 in 6.2 mi SSW 4.6 mph - N/A   Scattered Clouds
3:00 AM 75.2 °F - 69.8 °F 83% 29.98 in 6.2 mi SSW 3.5 mph - N/A   Scattered Clouds
4:00 AM 75.2 °F - 69.8 °F 83% 29.98 in 6.2 mi SSW 2.3 mph - N/A   Scattered Clouds
5:00 AM 73 °F - 69 °F 83% 29.99 in 7 mi NNE 2.3 mph - -   Scattered Clouds
5:00 AM 73.4 °F - 69.8 °F 88% 30.01 in 6.2 mi NNE 2.3 mph - N/A   Mostly Cloudy
6:00 AM 73.4 °F - 69.8 °F 88% 30.01 in 6.2 mi NE 2.3 mph - N/A   Mostly Cloudy
7:00 AM 73.4 °F - 69.8 °F 88% 30.04 in 6.2 mi NE 2.3 mph - N/A   Mostly Cloudy
8:00 AM 78 °F - 71 °F 72% 30.04 in 12 mi ENE 2.3 mph - -   Scattered Clouds
8:00 AM 78.8 °F - 69.8 °F 74% 30.04 in 6.2 mi ENE 2.3 mph - N/A   Partly Cloudy
9:00 AM 82.4 °F 86.3 °F 69.8 °F 66% 30.04 in 6.2 mi NNW 2.3 mph - N/A   Scattered Clouds
10:00 AM 82.4 °F 85.4 °F 68.0 °F 62% 30.06 in 6.2 mi West 4.6 mph - N/A   Scattered Clouds
11:00 AM 84.2 °F 87.3 °F 68.0 °F 58% 30.06 in 6.2 mi NW 4.6 mph - N/A   Scattered Clouds
12:00 PM 86.0 °F 90.4 °F 69.8 °F 58% 30.04 in 6.2 mi WNW 5.8 mph - N/A   Mostly Cloudy
1:00 PM 87.8 °F 92.6 °F 69.8 °F 55% 30.04 in 6.2 mi WNW 8.1 mph - N/A   Mostly Cloudy
2:00 PM 87.8 °F 92.6 °F 69.8 °F 55% 30.01 in 6.2 mi WNW 9.2 mph - N/A   Mostly Cloudy
3:00 PM 84.2 °F 86.6 °F 66.2 °F 55% 30.01 in 6.2 mi NW 10.4 mph - N/A   Mostly Cloudy
4:00 PM 86.0 °F 89.4 °F 68.0 °F 55% 30.01 in 6.2 mi WNW 11.5 mph - N/A   Scattered Clouds
5:00 PM 82 °F - 69 °F 56% 29.99 in 12 mi NW 11.5 mph - -   Partly Cloudy
5:00 PM 84.2 °F 88.4 °F 69.8 °F 62% 29.98 in 6.2 mi NW 11.5 mph - N/A   Scattered Clouds
6:00 PM 80.6 °F 83.2 °F 68.0 °F 65% 29.98 in 6.2 mi NNW 11.5 mph - N/A   Partly Cloudy
7:00 PM 78.8 °F - 69.8 °F 74% 29.98 in 6.2 mi North 10.4 mph - N/A   Scattered Clouds
8:00 PM 78 °F - 69 °F 68% 30.01 in 11 mi North 9.2 mph - -   Scattered Clouds
8:00 PM 78.8 °F - 69.8 °F 74% 30.01 in 6.2 mi North 9.2 mph - N/A   Scattered Clouds
9:00 PM 77.0 °F - 69.8 °F 78% 30.04 in 6.2 mi North 8.1 mph - N/A   Scattered Clouds
10:00 PM 77.0 °F - 71.6 °F 83% 30.04 in 6.2 mi North 8.1 mph - N/A   Scattered Clouds
11:00 PM 76 °F - 70 °F 77% 30.06 in 11 mi North 10.4 mph - -   Partly Cloudy
11:00 PM 77.0 °F - 69.8 °F 78% 30.06 in 6.2 mi North 10.4 mph - N/A   Scattered Clouds